WAT4855 MROC-MPTO

Flight info

Callsign WAT4855
Flight time 0h 48m
Altitude 35000
Route TEJAR4M LIO UA317 BUFEO DCT BITOR VUMAN2
Aircraft MD11/H-SDE1E2E3FGHIJ2J3J4J5M1RWXY/LB1D1

Departure

Time 2026-05-04 14:20
Airport Juan Santamaría International Airport (MROC)

Arrival

Time 2026-05-04 15:08
Airport Tocumen International Airport (MPTO)
Time Latitude Longitude Altitude Speed Heading
2026-05-04 13:50 9.99652 -84.20993 2998 ft 0 kts 339°
2026-05-04 14:11 9.99633 -84.20986 3000 ft 4 kts 340°
2026-05-04 14:11 9.99608 -84.20976 3004 ft 4 kts 340°
2026-05-04 14:12 9.99585 -84.20968 3000 ft 4 kts 326°
2026-05-04 14:12 9.99575 -84.20964 2999 ft 4 kts 263°
2026-05-04 14:12 9.99593 -84.20922 3007 ft 1 kts 248°
2026-05-04 14:15 9.99579 -84.20950 3006 ft 5 kts 233°
2026-05-04 14:15 9.99514 -84.20941 2998 ft 7 kts 154°
2026-05-04 14:16 9.99462 -84.20960 2996 ft 9 kts 243°
2026-05-04 14:16 9.99424 -84.21053 2991 ft 19 kts 250°
2026-05-04 14:17 9.99311 -84.21354 2977 ft 24 kts 250°
2026-05-04 14:17 9.99252 -84.21515 2971 ft 24 kts 250°
2026-05-04 14:17 9.99131 -84.21842 2946 ft 25 kts 248°
2026-05-04 14:18 9.99095 -84.21972 2943 ft 13 kts 274°
2026-05-04 14:18 9.99077 -84.22145 2936 ft 13 kts 249°
2026-05-04 14:19 9.98956 -84.22187 2935 ft 11 kts 158°
2026-05-04 14:19 9.98916 -84.22158 2929 ft 1 kts 111°
2026-05-04 14:19 9.98918 -84.22149 2930 ft 2 kts 83°
2026-05-04 14:19 9.98938 -84.22094 2935 ft 29 kts 69°
2026-05-04 14:20 9.99111 -84.21634 2956 ft 109 kts 70°
2026-05-04 14:20 9.99460 -84.20700 3030 ft 168 kts 69°
2026-05-04 14:20 9.99894 -84.19575 3674 ft 176 kts 68°
2026-05-04 14:21 10.00853 -84.17208 5198 ft 211 kts 68°
2026-05-04 14:21 10.01427 -84.15782 5854 ft 221 kts 66°
2026-05-04 14:21 10.01974 -84.14326 6782 ft 220 kts 74°
2026-05-04 14:21 10.02142 -84.12723 7138 ft 245 kts 97°
2026-05-04 14:22 10.01402 -84.11089 7467 ft 267 kts 129°
2026-05-04 14:22 10.00049 -84.09769 8402 ft 272 kts 137°
2026-05-04 14:22 9.98587 -84.08543 9427 ft 274 kts 138°
2026-05-04 14:22 9.97096 -84.07321 10383 ft 277 kts 138°
2026-05-04 14:23 9.93996 -84.04773 11874 ft 294 kts 139°
2026-05-04 14:23 9.92394 -84.03451 12675 ft 300 kts 139°
2026-05-04 14:23 9.90739 -84.02106 13289 ft 316 kts 140°
2026-05-04 14:24 9.88931 -84.00653 13411 ft 346 kts 141°
2026-05-04 14:24 9.86969 -83.99081 13554 ft 373 kts 141°
2026-05-04 14:24 9.84973 -83.97333 14091 ft 383 kts 134°
2026-05-04 14:24 9.83337 -83.95195 14823 ft 385 kts 118°
2026-05-04 14:25 9.82386 -83.92655 15508 ft 389 kts 100°
2026-05-04 14:25 9.82411 -83.87126 16828 ft 399 kts 84°
2026-05-04 14:25 9.82724 -83.84361 17519 ft 402 kts 83°
2026-05-04 14:26 9.83047 -83.81525 18186 ft 407 kts 84°
2026-05-04 14:26 9.83344 -83.78651 18740 ft 412 kts 84°
2026-05-04 14:26 9.83603 -83.75742 19246 ft 417 kts 85°
2026-05-04 14:26 9.83832 -83.72799 19760 ft 421 kts 86°
2026-05-04 14:27 9.84047 -83.69817 20238 ft 426 kts 86°
2026-05-04 14:27 9.84255 -83.66807 20724 ft 431 kts 86°
2026-05-04 14:27 9.84463 -83.63759 21221 ft 435 kts 86°
2026-05-04 14:27 9.84764 -83.60687 21687 ft 440 kts 82°
2026-05-04 14:28 9.85264 -83.57613 22220 ft 445 kts 79°
2026-05-04 14:28 9.85868 -83.54515 22698 ft 450 kts 78°
2026-05-04 14:28 9.86514 -83.51400 23332 ft 452 kts 78°
2026-05-04 14:28 9.87168 -83.48266 23848 ft 457 kts 78°
2026-05-04 14:29 9.88469 -83.41916 24870 ft 463 kts 78°
2026-05-04 14:29 9.89758 -83.35485 25933 ft 469 kts 78°
2026-05-04 14:30 9.90405 -83.32233 26462 ft 472 kts 78°
2026-05-04 14:30 9.91056 -83.28959 26940 ft 476 kts 79°
2026-05-04 14:30 9.92367 -83.22353 27979 ft 481 kts 79°
2026-05-04 14:31 9.93029 -83.19021 28493 ft 483 kts 78°
2026-05-04 14:31 9.94354 -83.12339 29439 ft 490 kts 78°
2026-05-04 14:32 9.95649 -83.05507 30292 ft 495 kts 82°
2026-05-04 14:32 9.95849 -83.02032 30809 ft 493 kts 92°
2026-05-04 14:32 9.95446 -82.98595 31335 ft 491 kts 102°
2026-05-04 14:32 9.94513 -82.95272 31844 ft 488 kts 109°
2026-05-04 14:33 9.93337 -82.92051 32369 ft 486 kts 111°
2026-05-04 14:33 9.92119 -82.88859 32862 ft 485 kts 111°
2026-05-04 14:33 9.90944 -82.85662 33340 ft 483 kts 110°
2026-05-04 14:33 9.89831 -82.82465 33781 ft 482 kts 109°
2026-05-04 14:34 9.88759 -82.79242 34116 ft 482 kts 108°
2026-05-04 14:34 9.87719 -82.76025 34324 ft 480 kts 108°
2026-05-04 14:34 9.86694 -82.72811 34559 ft 479 kts 107°
2026-05-04 14:34 9.85674 -82.69599 34792 ft 478 kts 107°
2026-05-04 14:35 9.84656 -82.66394 34925 ft 477 kts 108°
2026-05-04 14:35 9.82627 -82.60029 34972 ft 478 kts 108°
2026-05-04 14:36 9.80514 -82.53646 34977 ft 477 kts 109°
2026-05-04 14:36 9.78683 -82.48367 34976 ft 478 kts 109°
2026-05-04 14:37 9.76469 -82.42024 34977 ft 477 kts 109°
2026-05-04 14:37 9.74263 -82.35681 34976 ft 478 kts 109°
2026-05-04 14:38 9.72061 -82.29337 34978 ft 477 kts 109°
2026-05-04 14:38 9.69856 -82.22985 34977 ft 477 kts 109°
2026-05-04 14:39 9.67648 -82.16631 34979 ft 477 kts 109°
2026-05-04 14:39 9.65443 -82.10291 34983 ft 477 kts 109°
2026-05-04 14:40 9.62132 -82.00775 34982 ft 477 kts 109°
2026-05-04 14:40 9.59921 -81.94428 34982 ft 477 kts 109°
2026-05-04 14:41 9.57712 -81.88089 34980 ft 477 kts 109°
2026-05-04 14:42 9.53286 -81.75411 34983 ft 477 kts 109°
2026-05-04 14:42 9.51064 -81.69070 34982 ft 477 kts 109°
2026-05-04 14:43 9.48862 -81.62774 34982 ft 477 kts 109°
2026-05-04 14:43 9.46650 -81.56449 34983 ft 476 kts 109°
2026-05-04 14:44 9.44437 -81.50123 34980 ft 476 kts 109°
2026-05-04 14:44 9.42224 -81.43801 34982 ft 476 kts 109°
2026-05-04 14:45 9.40009 -81.37481 34984 ft 476 kts 109°
2026-05-04 14:45 9.37794 -81.31163 34983 ft 476 kts 109°
2026-05-04 14:46 9.35576 -81.24840 34982 ft 477 kts 109°
2026-05-04 14:46 9.33350 -81.18498 34981 ft 479 kts 109°
2026-05-04 14:47 9.31120 -81.12148 34981 ft 479 kts 109°
2026-05-04 14:47 9.28887 -81.05796 34979 ft 479 kts 109°
2026-05-04 14:48 9.26681 -80.99499 34973 ft 466 kts 108°
2026-05-04 14:48 9.24574 -80.93305 34143 ft 468 kts 108°
2026-05-04 14:49 9.23529 -80.90194 33291 ft 467 kts 108°
2026-05-04 14:49 9.22485 -80.87080 32459 ft 467 kts 108°
2026-05-04 14:49 9.21452 -80.84003 31642 ft 469 kts 108°
2026-05-04 14:49 9.20398 -80.80865 30846 ft 473 kts 109°
2026-05-04 14:50 9.19334 -80.77703 30118 ft 476 kts 109°
2026-05-04 14:50 9.18262 -80.74519 29356 ft 480 kts 109°
2026-05-04 14:50 9.17182 -80.71314 28685 ft 482 kts 109°
2026-05-04 14:50 9.16096 -80.68091 28048 ft 485 kts 109°
2026-05-04 14:51 9.15005 -80.64858 27391 ft 487 kts 109°
2026-05-04 14:51 9.13909 -80.61607 26759 ft 489 kts 109°
2026-05-04 14:51 9.12809 -80.58345 26115 ft 491 kts 109°
2026-05-04 14:51 9.11704 -80.55071 25617 ft 492 kts 109°
2026-05-04 14:52 9.10596 -80.51790 25308 ft 494 kts 109°
2026-05-04 14:52 9.09508 -80.48568 25160 ft 471 kts 109°
2026-05-04 14:52 9.08475 -80.45513 25036 ft 447 kts 109°
2026-05-04 14:52 9.07493 -80.42610 24904 ft 426 kts 109°
2026-05-04 14:53 9.06551 -80.39826 24607 ft 411 kts 109°
2026-05-04 14:53 9.05727 -80.37090 24102 ft 404 kts 104°
2026-05-04 14:53 9.05089 -80.34327 23396 ft 403 kts 102°
2026-05-04 14:53 9.04541 -80.31549 22603 ft 401 kts 101°
2026-05-04 14:54 9.04026 -80.28785 21861 ft 398 kts 101°
2026-05-04 14:54 9.03516 -80.26043 21174 ft 395 kts 101°
2026-05-04 14:54 9.03006 -80.23327 20495 ft 391 kts 101°
2026-05-04 14:54 9.02495 -80.20639 19828 ft 385 kts 100°
2026-05-04 14:55 9.01993 -80.18018 19171 ft 373 kts 101°
2026-05-04 14:55 9.01504 -80.15485 18519 ft 361 kts 101°
2026-05-04 14:55 9.01035 -80.13068 17893 ft 348 kts 100°
2026-05-04 14:55 9.00580 -80.10731 17291 ft 333 kts 100°
2026-05-04 14:56 9.00134 -80.08433 16715 ft 332 kts 100°
2026-05-04 14:56 8.99689 -80.06144 16146 ft 330 kts 100°
2026-05-04 14:56 8.99253 -80.03903 15583 ft 320 kts 100°
2026-05-04 14:56 8.98823 -80.01693 15033 ft 321 kts 100°
2026-05-04 14:57 8.98392 -79.99474 14478 ft 322 kts 101°
2026-05-04 14:57 8.97959 -79.97246 13927 ft 324 kts 100°
2026-05-04 14:57 8.97529 -79.95037 13343 ft 314 kts 100°
2026-05-04 14:57 8.97112 -79.92893 12779 ft 308 kts 100°
2026-05-04 14:58 8.96708 -79.90822 12248 ft 294 kts 100°
2026-05-04 14:58 8.96320 -79.88832 11754 ft 285 kts 100°
2026-05-04 14:58 8.95935 -79.86861 11274 ft 286 kts 100°
2026-05-04 14:58 8.95550 -79.84884 10797 ft 287 kts 100°
2026-05-04 14:59 8.95165 -79.82905 10320 ft 284 kts 100°
2026-05-04 14:59 8.94791 -79.80993 9946 ft 272 kts 99°
2026-05-04 14:59 8.94052 -79.77206 8982 ft 276 kts 99°
2026-05-04 15:00 8.93684 -79.75316 8520 ft 272 kts 99°
2026-05-04 15:00 8.93320 -79.73453 8084 ft 268 kts 99°
2026-05-04 15:00 8.92959 -79.71607 7653 ft 267 kts 99°
2026-05-04 15:01 8.92241 -79.67932 6842 ft 267 kts 99°
2026-05-04 15:01 8.91881 -79.66090 6442 ft 267 kts 99°
2026-05-04 15:01 8.91552 -79.64404 6067 ft 267 kts 99°
2026-05-04 15:01 8.91193 -79.62567 5655 ft 265 kts 98°
2026-05-04 15:02 8.90844 -79.60786 5277 ft 258 kts 98°
2026-05-04 15:02 8.90498 -79.59027 4982 ft 251 kts 98°
2026-05-04 15:02 8.90164 -79.57329 4840 ft 241 kts 98°
2026-05-04 15:02 8.89847 -79.55719 4749 ft 225 kts 98°
2026-05-04 15:03 8.89549 -79.54226 4631 ft 208 kts 97°
2026-05-04 15:03 8.89413 -79.52797 4391 ft 200 kts 82°
2026-05-04 15:03 8.89811 -79.51497 4084 ft 191 kts 56°
2026-05-04 15:03 8.90678 -79.50513 3799 ft 189 kts 42°
2026-05-04 15:04 8.91647 -79.49612 3497 ft 189 kts 41°
2026-05-04 15:04 8.92621 -79.48721 3227 ft 188 kts 41°
2026-05-04 15:04 8.93593 -79.47839 2915 ft 187 kts 41°
2026-05-04 15:04 8.94563 -79.46965 2738 ft 188 kts 41°
2026-05-04 15:05 8.95548 -79.46081 2725 ft 189 kts 41°
2026-05-04 15:05 8.96601 -79.45281 2719 ft 190 kts 32°
2026-05-04 15:05 8.97743 -79.44560 2415 ft 197 kts 31°
2026-05-04 15:05 8.98913 -79.43836 1989 ft 197 kts 31°
2026-05-04 15:06 9.00051 -79.43136 1673 ft 183 kts 31°
2026-05-04 15:06 9.01077 -79.42507 1369 ft 163 kts 29°
2026-05-04 15:06 9.02018 -79.41931 1226 ft 153 kts 30°
2026-05-04 15:07 9.03847 -79.40821 741 ft 154 kts 31°
2026-05-04 15:07 9.04768 -79.40263 588 ft 156 kts 31°
2026-05-04 15:07 9.05697 -79.39686 392 ft 157 kts 32°
2026-05-04 15:07 9.06640 -79.39129 213 ft 158 kts 33°
2026-05-04 15:08 9.07575 -79.38555 59 ft 152 kts 32°
2026-05-04 15:08 9.08350 -79.38088 48 ft 102 kts 31°
2026-05-04 15:08 9.08789 -79.37825 47 ft 44 kts 30°
2026-05-04 15:08 9.09000 -79.37699 45 ft 34 kts 31°
2026-05-04 15:09 9.09200 -79.37579 42 ft 32 kts 30°
2026-05-04 15:09 9.09328 -79.37502 41 ft 7 kts 33°
2026-05-04 15:09 9.09336 -79.37480 41 ft 4 kts 83°
2026-05-04 15:10 9.09306 -79.37402 42 ft 8 kts 118°
2026-05-04 15:10 9.09279 -79.37351 42 ft 7 kts 118°
2026-05-04 15:10 9.09199 -79.37352 42 ft 10 kts 193°
2026-05-04 15:11 9.09116 -79.37375 42 ft 15 kts 197°
2026-05-04 15:11 9.08995 -79.37412 43 ft 21 kts 197°
2026-05-04 15:11 9.08861 -79.37465 45 ft 19 kts 215°
2026-05-04 15:11 9.08757 -79.37530 46 ft 16 kts 208°
2026-05-04 15:12 9.08681 -79.37562 46 ft 5 kts 175°
2026-05-04 15:12 9.08672 -79.37552 46 ft 1 kts 122°
2026-05-04 15:12 9.08671 -79.37545 46 ft 1 kts 103°
2026-05-04 15:12 9.08670 -79.37529 46 ft 4 kts 95°
2026-05-04 15:13 9.08663 -79.37505 46 ft 2 kts 118°
2026-05-04 15:13 9.08656 -79.37495 46 ft 2 kts 121°
2026-05-04 15:13 9.08653 -79.37490 46 ft 0 kts 122°
2026-05-04 15:13 9.08651 -79.37487 46 ft 0 kts 121°
2026-05-04 15:41 9.08651 -79.37486 46 ft 0 kts 126°
2026-05-04 15:42 9.08650 -79.37486 46 ft 0 kts 128°
2026-05-04 15:42 9.08648 -79.37485 46 ft 0 kts 139°
2026-05-04 15:42 9.08645 -79.37485 45 ft 1 kts 159°
2026-05-04 15:42 9.08641 -79.37487 45 ft 1 kts 180°
2026-05-04 15:43 9.08638 -79.37489 45 ft 1 kts 202°
2026-05-04 15:43 9.08636 -79.37493 45 ft 1 kts 223°
2026-05-04 15:43 9.08635 -79.37497 45 ft 2 kts 241°
2026-05-04 15:43 9.08618 -79.37528 47 ft 9 kts 240°
2026-05-04 15:44 9.08573 -79.37598 47 ft 15 kts 231°
2026-05-04 15:44 9.08490 -79.37696 48 ft 21 kts 226°
2026-05-04 15:44 9.08390 -79.37799 48 ft 20 kts 225°
2026-05-04 15:44 9.08280 -79.37914 49 ft 26 kts 226°
2026-05-04 15:45 9.08144 -79.38038 50 ft 25 kts 213°
2026-05-04 15:45 9.08000 -79.38126 51 ft 23 kts 210°
2026-05-04 15:45 9.07871 -79.38202 52 ft 20 kts 210°
2026-05-04 15:45 9.07757 -79.38271 51 ft 18 kts 211°
2026-05-04 15:46 9.07657 -79.38331 49 ft 15 kts 211°
2026-05-04 15:46 9.07551 -79.38395 50 ft 20 kts 211°